SCP
0 0 0 0 0 0 0 0 0 0 0 0 0 0 0 0 0 0 0 0 0 0 0 0 0 0 0 0 0 0 0 0
0 -0 -0 0 0 0 0 0 0 0 0 0 0 0 0 0 0 0 0 0 0 0 0 0 0 0 0 0 0 0 0 0
0 0 -0 -0 0 0 0 0 0 0 0 0 0 0 0 0 0 0 0 0 0 0 0 0 0 0 0 0 0 0 0 0
0 0 -0 -0 0 0 0 0 0 0 0 0 0 0 0 0 0 0 0 0 0 0 0 0 0 0 0 0 0 0 0 0
0 0 -0 0 0 0 0 0 0 0 0 0 0 0 0 0 0 0 0 0 0 0 0 0 0 0 0 0 0 0 0 0
0 0 0 0 0 0 0 0 0 0 0 0 0 0 0 0 0 0 0 0 0 0 0 0 0 0 0 0 0 0 0 0
0 0 0 0 0 0 0 0 0 0 0 0 0 0 0 0 0 0 0 0 0 0 0 0 0 0 0 0 0 0 0 0
0 0 0 0 0 0 0 0 0 0 0 0 0 0 0 0 0 0 0 0 0 0 0 0 0 0 0 0 0 0 0 0
0 0 0 0 0 0 0 0 0 0 0 0 0 0 0 0 0 0 0 0 0 0 0 0 0 0 0 0 0 0 0 0
0 0 0 0 0 0 0 0 0 0 0 0 0 0 0 0 0 0 0 0 0 0 0 0 0 0 0 0 0 0 0 0
0 0 0 0 0 0 0 0 0 0 0 0 0 0 0 0 0 0 0 0 0 0 0 0 0 0 0 0 0 0 0 0
0 0 0 0 0 0 0 0 0 0 0 0 0 0 0 0 0 0 0 0 0 0 0 0 0 0 0 0 0 0 0 0
0 0 0 0 0 0 0 0 0 0 0 0 0 0 0 0 0 0 0 0 0 0 0 0 0 0 0 0 0 0 0 0
0 0 0 0 0 0 0 0 0 0 0 0 0 0 0 0 0 0 0 0 0 0 0 0 0 0 0 0 0 0 0 0
0 0 0 0 0 0 0 0 0 0 0 0 0 0 0 0 0 0 0 0 0 0 0 0 0 0 0 0 0 0 0 0
0 0 0 0 0 0 0 0 0 0 0 0 0 0 0 0 0 0 0 0 0 0 0 0 0 0 0 0 0 0 0 0
0 0 0 0 0 0 0 0 0 0 0 0 0 0 0 0 0 0 0 0 0 0 0 0 0 0 0 0 0 0 0 0
0 0 0 0 0 0 0 0 0 0 0 0 0 0 0 0 0 0 0 0 0 0 0 0 0 0 0 0 0 0 0 0
0 0 0 0 0 0 0 0 0 0 0 0 0 0 0 0 0 0 0 0 0 0 0 0 0 0 0 0 0 0 0 0
0 0 0 0 0 0 0 0 0 0 0 0 0 0 0 0 0 0 0 0 0 0 0 0 0 0 0 0 0 0 0 0
Wind_Speed_500mb
19 16 17 23 30 39 48 59 73 82 83 81 79 78 75 76 74 73 69 72 70 77 79 75 70 64 58 51 45 37 31 24
18 13 14 17 27 33 43 54 69 80 82 79 76 78 76 73 74 74 73 79 80 84 85 79 73 67 60 52 44 38 31 25
21 14 15 13 25 30 38 49 60 73 79 76 74 77 79 75 76 76 76 80 84 87 87 82 75 68 61 53 45 37 30 24
19 12 16 21 30 32 35 44 55 69 76 78 78 81 81 77 77 78 80 83 85 90 88 82 75 69 61 51 43 38 31 23
28 24 36 39 38 40 39 45 54 67 77 82 83 82 84 79 79 79 80 82 86 92 88 82 76 68 60 53 47 40 30 23
54 57 57 54 50 48 48 51 57 67 79 85 84 82 85 82 80 80 82 84 88 96 91 84 78 70 63 56 50 39 31 32
81 75 76 65 59 57 59 60 65 70 78 84 86 87 88 86 82 84 86 89 95 99 93 88 80 70 63 57 53 42 39 40
93 82 79 77 74 73 70 67 70 74 76 84 89 91 91 88 88 89 92 92 99 101 95 88 78 71 65 58 51 48 41 50
89 92 79 70 66 67 72 73 72 75 77 81 88 92 92 92 93 94 94 96 103 101 93 85 77 72 66 60 59 55 50 67
62 57 53 53 56 61 65 70 69 73 76 79 83 90 91 92 91 90 90 96 99 95 89 84 77 71 66 66 62 64 68 67
36 38 39 43 48 52 53 57 61 63 66 70 76 81 82 82 83 84 84 89 90 87 82 76 72 71 68 72 70 67 73 63
50 54 51 43 40 41 41 45 46 47 49 52 58 63 68 72 76 78 81 78 75 74 73 70 66 69 70 78 75 66 65 64
27 26 26 25 25 25 26 26 29 31 31 35 41 50 58 62 64 66 62 62 65 68 61 60 68 70 78 76 72 65 70 65
22 18 15 13 12 12 16 18 21 23 24 25 30 37 45 51 55 55 55 60 66 69 62 61 72 80 76 73 68 66 70 65
13 9 9 16 19 19 22 23 22 24 25 25 24 30 35 39 43 53 59 53 49 52 61 72 80 74 73 69 56 56 65 71
11 20 30 34 33 29 25 26 25 23 23 25 28 34 41 46 48 51 49 47 50 57 65 68 67 56 49 54 59 58 60 60
19 22 29 26 26 26 22 19 15 22 24 25 26 30 33 38 45 48 47 50 51 49 49 50 51 52 54 55 55 53 54 61
19 19 24 27 28 30 30 27 23 19 24 25 25 26 28 31 33 35 39 42 42 40 42 43 45 47 46 48 49 50 55 57
24 29 31 31 32 34 30 26 24 22 20 19 19 19 19 20 21 25 27 31 35 40 42 44 46 46 46 48 52 46 44 45
37 39 36 32 30 29 26 23 20 18 17 18 17 17 18 19 22 25 27 30 33 33 34 38 40 42 45 44 37 38 40 40
Wind_Direction_500mb
231 244 257 262 260 254 248 241 234 228 228 226 222 219 220 222 223 224 223 221 219 213 205 202 201 201 202 201 200 199 195 192
219 221 238 266 271 261 250 240 230 228 230 228 224 220 220 223 227 226 225 222 216 211 206 203 202 202 202 202 202 198 195 191
212 212 231 262 274 267 255 245 234 229 231 231 226 221 221 225 228 226 224 221 216 211 207 205 204 205 204 205 201 199 195 194
221 242 297 285 269 268 260 250 237 228 228 230 228 221 222 226 228 227 222 220 215 211 209 207 207 207 206 205 203 198 195 198
254 284 302 290 267 261 259 252 241 229 228 230 230 224 222 224 227 227 224 221 216 212 211 210 209 208 207 203 201 200 201 215
282 288 288 282 266 260 257 251 246 234 230 230 231 227 223 224 226 228 227 222 216 212 210 211 210 209 207 206 205 205 215 230
279 281 284 279 271 264 262 253 245 238 234 231 230 227 227 228 225 229 227 221 214 213 212 210 209 208 209 210 209 202 227 229
278 280 283 282 279 271 263 255 248 242 236 233 231 229 228 227 228 228 227 221 214 213 212 211 210 210 210 211 208 223 225 239
278 282 280 278 272 268 263 258 251 244 238 234 233 231 230 227 228 229 226 221 215 213 212 212 211 211 211 211 217 239 225 242
281 278 275 271 266 264 261 258 251 243 239 236 233 231 229 228 227 227 223 217 214 214 213 212 211 212 213 214 225 248 234 247
278 272 273 278 268 261 258 253 250 246 241 237 234 232 230 229 227 226 223 218 214 214 215 215 214 215 215 224 242 248 249 250
278 277 276 268 259 254 250 247 244 242 243 241 237 233 230 228 225 224 220 216 217 216 217 220 216 219 220 238 253 257 255 250
286 279 275 262 250 246 241 232 231 231 226 226 227 225 223 223 223 221 216 213 216 216 216 221 222 223 236 251 246 254 257 256
276 265 249 226 202 208 200 190 186 190 192 197 204 210 213 215 215 210 202 212 220 227 224 222 225 235 246 251 238 251 259 265
237 207 176 149 134 129 136 139 149 157 161 165 181 190 196 199 204 205 216 227 226 224 220 225 236 245 249 245 244 251 254 260
150 148 144 136 130 125 132 135 143 153 161 167 180 189 192 202 215 222 226 230 230 228 234 242 246 246 242 248 254 257 253 255
146 146 141 142 145 145 133 132 149 162 166 168 173 180 191 203 209 215 219 228 235 237 240 242 245 246 244 244 247 247 245 248
155 160 151 149 151 145 143 141 140 152 157 163 169 178 184 191 201 208 212 221 226 228 230 233 237 240 242 245 247 245 245 249
146 140 136 139 142 135 135 135 140 146 151 156 165 172 181 190 200 207 216 224 226 228 232 235 238 242 245 244 250 251 251 252
147 141 137 138 134 132 133 134 139 146 152 154 165 174 185 199 211 219 226 230 235 238 239 240 239 241 245 257 256 253 251 253
Wind_Speed_850mb
19 16 17 23 30 39 48 59 73 82 83 81 79 78 75 76 74 73 69 72 70 77 79 75 70 64 58 51 45 37 31 24
18 13 14 17 27 33 43 54 69 80 82 79 76 78 76 73 74 74 73 79 80 84 85 79 73 67 60 52 44 38 31 25
21 14 15 13 25 30 38 49 60 73 79 76 74 77 79 75 76 76 76 80 84 87 87 82 75 68 61 53 45 37 30 24
19 12 16 21 30 32 35 44 55 69 76 78 78 81 81 77 77 78 80 83 85 90 88 82 75 69 61 51 43 38 31 23
28 24 36 39 38 40 39 45 54 67 77 82 83 82 84 79 79 79 80 82 86 92 88 82 76 68 60 53 47 40 30 23
54 57 57 54 50 48 48 51 57 67 79 85 84 82 85 82 80 80 82 84 88 96 91 84 78 70 63 56 50 39 31 32
81 75 76 65 59 57 59 60 65 70 78 84 86 87 88 86 82 84 86 89 95 99 93 88 80 70 63 57 53 42 39 40
93 82 79 77 74 73 70 67 70 74 76 84 89 91 91 88 88 89 92 92 99 101 95 88 78 71 65 58 51 48 41 50
89 92 79 70 66 67 72 73 72 75 77 81 88 92 92 92 93 94 94 96 103 101 93 85 77 72 66 60 59 55 50 67
62 57 53 53 56 61 65 70 69 73 76 79 83 90 91 92 91 90 90 96 99 95 89 84 77 71 66 66 62 64 68 67
36 38 39 43 48 52 53 57 61 63 66 70 76 81 82 82 83 84 84 89 90 87 82 76 72 71 68 72 70 67 73 63
50 54 51 43 40 41 41 45 46 47 49 52 58 63 68 72 76 78 81 78 75 74 73 70 66 69 70 78 75 66 65 64
27 26 26 25 25 25 26 26 29 31 31 35 41 50 58 62 64 66 62 62 65 68 61 60 68 70 78 76 72 65 70 65
22 18 15 13 12 12 16 18 21 23 24 25 30 37 45 51 55 55 55 60 66 69 62 61 72 80 76 73 68 66 70 65
13 9 9 16 19 19 22 23 22 24 25 25 24 30 35 39 43 53 59 53 49 52 61 72 80 74 73 69 56 56 65 71
11 20 30 34 33 29 25 26 25 23 23 25 28 34 41 46 48 51 49 47 50 57 65 68 67 56 49 54 59 58 60 60
19 22 29 26 26 26 22 19 15 22 24 25 26 30 33 38 45 48 47 50 51 49 49 50 51 52 54 55 55 53 54 61
19 19 24 27 28 30 30 27 23 19 24 25 25 26 28 31 33 35 39 42 42 40 42 43 45 47 46 48 49 50 55 57
24 29 31 31 32 34 30 26 24 22 20 19 19 19 19 20 21 25 27 31 35 40 42 44 46 46 46 48 52 46 44 45
37 39 36 32 30 29 26 23 20 18 17 18 17 17 18 19 22 25 27 30 33 33 34 38 40 42 45 44 37 38 40 40
Wind_Direction_850mb
231 244 257 262 260 254 248 241 234 228 228 226 222 219 220 222 223 224 223 221 219 213 205 202 201 201 202 201 200 199 195 192
219 221 238 266 271 261 250 240 230 228 230 228 224 220 220 223 227 226 225 222 216 211 206 203 202 202 202 202 202 198 195 191
212 212 231 262 274 267 255 245 234 229 231 231 226 221 221 225 228 226 224 221 216 211 207 205 204 205 204 205 201 199 195 194
221 242 297 285 269 268 260 250 237 228 228 230 228 221 222 226 228 227 222 220 215 211 209 207 207 207 206 205 203 198 195 198
254 284 302 290 267 261 259 252 241 229 228 230 230 224 222 224 227 227 224 221 216 212 211 210 209 208 207 203 201 200 201 215
282 288 288 282 266 260 257 251 246 234 230 230 231 227 223 224 226 228 227 222 216 212 210 211 210 209 207 206 205 205 215 230
279 281 284 279 271 264 262 253 245 238 234 231 230 227 227 228 225 229 227 221 214 213 212 210 209 208 209 210 209 202 227 229
278 280 283 282 279 271 263 255 248 242 236 233 231 229 228 227 228 228 227 221 214 213 212 211 210 210 210 211 208 223 225 239
278 282 280 278 272 268 263 258 251 244 238 234 233 231 230 227 228 229 226 221 215 213 212 212 211 211 211 211 217 239 225 242
281 278 275 271 266 264 261 258 251 243 239 236 233 231 229 228 227 227 223 217 214 214 213 212 211 212 213 214 225 248 234 247
278 272 273 278 268 261 258 253 250 246 241 237 234 232 230 229 227 226 223 218 214 214 215 215 214 215 215 224 242 248 249 250
278 277 276 268 259 254 250 247 244 242 243 241 237 233 230 228 225 224 220 216 217 216 217 220 216 219 220 238 253 257 255 250
286 279 275 262 250 246 241 232 231 231 226 226 227 225 223 223 223 221 216 213 216 216 216 221 222 223 236 251 246 254 257 256
276 265 249 226 202 208 200 190 186 190 192 197 204 210 213 215 215 210 202 212 220 227 224 222 225 235 246 251 238 251 259 265
237 207 176 149 134 129 136 139 149 157 161 165 181 190 196 199 204 205 216 227 226 224 220 225 236 245 249 245 244 251 254 260
150 148 144 136 130 125 132 135 143 153 161 167 180 189 192 202 215 222 226 230 230 228 234 242 246 246 242 248 254 257 253 255
146 146 141 142 145 145 133 132 149 162 166 168 173 180 191 203 209 215 219 228 235 237 240 242 245 246 244 244 247 247 245 248
155 160 151 149 151 145 143 141 140 152 157 163 169 178 184 191 201 208 212 221 226 228 230 233 237 240 242 245 247 245 245 249
146 140 136 139 142 135 135 135 140 146 151 156 165 172 181 190 200 207 216 224 226 228 232 235 238 242 245 244 250 251 251 252
147 141 137 138 134 132 133 134 139 146 152 154 165 174 185 199 211 219 226 230 235 238 239 240 239 241 245 257 256 253 251 253